Regional Weather Roundup
Issued by NWS

Home | Current Version | Previous Version | Text Only | Print | Product List | Glossary Off
Versions: 1 2 3 4 5 6 7 8 9 10 11 12 13 14 15 16 17 18 19 20 21 22 23 24 25 26 27 28 29 30 31 32 33 34 35 36 37 38 39 40 41 42 43 44 45 46 47 48 49 50

000
ASUS43 KMKX 051320
RWRWI

WISCONSIN REGIONAL WEATHER ROUNDUP
NATIONAL WEATHER SERVICE MILWAUKEE/SULLIVAN WI
700 AM CST THU MAR 05 2015

NOTE: "FAIR" INDICATES FEW OR NO CLOUDS BELOW 12,000 FEET WITH NO
SIGNIFICANT WEATHER AND/OR OBSTRUCTIONS TO VISIBILITY.

WIZ001-002-006>008-014>016-023>028-051400-
NORTHWEST WISCONSIN

CITY           SKY/WX    TMP DP  RH WIND       PRES   REMARKS
SUPERIOR ARPT  FAIR     -15 -20  78 SW7       30.45R WCI -31
ASHLAND        CLEAR    -11 -17  75 SW7       30.41R WCI -26
HAYWARD        PTCLDY   -27 -33  73 CALM      30.39R
SIREN          PTCLDY   -22 -28  72 CALM      30.44S
CUMBERLAND     PTCLDY   -20 -27  69 CALM      30.40R
RICE LAKE      PTCLDY   -25 -31  71 CALM      30.44R
CHETEK         PTCLDY   -20 -26  76 CALM      30.43R
LADYSMITH      CLEAR    -22 -29  72 CALM      30.40R
EAU CLAIRE     CLEAR    -11 -18  71 SW3       30.44R
MENOMONIE      PTCLDY    -8 -15  71 W6        30.47R WCI -21
NEW RICHMOND   PTCLDY   -16 -22  75 CALM      30.46R
OSCEOLA        PTCLDY   -18 -23  75 CALM      30.50R
$$

WIZ003>005-009-010-017-018-051400-
NORTH CENTRAL WISCONSIN

CITY           SKY/WX    TMP DP  RH WIND       PRES   REMARKS
MANITOWISH WTR PTCLDY   -24 -30  75 CALM      30.30R
ARBOR VITAE    PTCLDY   -19 -26  70 CALM      30.30R
WOODRUFF       PTCLDY   -19 -26  70 CALM      30.30R
RHINELANDER    PTCLDY   -20 -26  74 CALM      30.29S
EAGLE RIVER    PTCLDY   -22 -30  69 CALM      30.28S
LAND O LAKES   CLEAR    -23 -30  71 CALM      30.28S
PHILLIPS       PTCLDY   -23 -29  76 CALM      30.34R
TOMAHAWK       PTCLDY   -24 -31  72 CALM      30.33S
MEDFORD        FAIR     -16 -21  78 CALM      30.33S
MERRILL        PTCLDY   -23 -28  76 CALM      30.34S
$$

WIZ029-030-035-036-043>047-051400-
CENTRAL WISCONSIN

CITY           SKY/WX    TMP DP  RH WIND       PRES   REMARKS
WAUSAU         PTCLDY    -9 -17  68 NW7       30.35S WCI -24
MOSINEE        CLEAR    -11 -18  70 NW3       30.37R
MARSHFIELD     PTCLDY    -9 -16  71 NW6       30.37R WCI -22
STEVENS POINT  CLEAR    -19 -25  75 CALM      30.39S
WAUPACA        CLEAR     -4 -13  63 W3        30.42R
WAUTOMA        FAIR     -13 -20  71 CALM      30.43R
WISC RAPIDS    CLEAR    -12 -18  74 CALM      30.41S
CAMP DOUGLAS   CLEAR     -6 -13  71 W3        30.44R
$$

WIZ011>013-019>022-031-037>040-048>050-051400-
NORTHEAST WISCONSIN

CITY           SKY/WX    TMP DP  RH WIND       PRES   REMARKS
ANTIGO         PTCLDY   -19 -24  79 CALM      30.32R
SHAWANO        CLEAR     -6 -14  68 CALM      30.41S
OCONTO         CLEAR     -8 -14  76 W5        30.41S WCI -20
STURGEON BAY   CLEAR     -6 -15  65 W5        30.40S WCI -17
GREEN BAY      CLEAR     -5 -13  68 CALM      30.41R
MANITOWOC      CLEAR     -2 -11  65 W8        30.41S WCI -17
APPLETON       CLEAR     -8 -17  65 W9        30.39R WCI -25
CLINTONVILLE   CLEAR     -6 -15  65 NW3       30.41R
OSHKOSH        CLEAR     -3 -12  65 W6        30.41R WCI -15
$$

WIZ032>034-041-042-053>061-051400-
SOUTHWEST WISCONSIN

CITY           SKY/WX    TMP DP  RH WIND       PRES   REMARKS
LA CROSSE      CLEAR     -4 -12  68 CALM      30.49R
SPARTA         CLEAR    -15 -20  76 CALM      30.46R
VIROQUA        CLEAR     -5 -11  75 W5        30.40R WCI -16
BOSCOBEL       CLEAR     -9 -15  75 CALM      30.50R
PRAIRIE DU CHI CLEAR     -5 -13  69 CALM      30.50R
PLATTEVILLE    CLEAR     -5 -10  77 W5        30.44R WCI -16
$$

WIZ056-057-062-063-064-067-068-051400-
SOUTH CENTRAL WISCONSIN

CITY           SKY/WX    TMP DP  RH WIND       PRES   REMARKS
REEDSBURG      CLEAR     -5 -12  73 W3        30.44R
BARABOO/DELLS  CLEAR     -6 -13  71 CALM      30.42R
LONE ROCK      CLEAR     -6 -11  79 W6        30.48R WCI -19
MINERAL POINT  CLEAR     -4 -11  71 CALM      30.42R
MADISON        PTCLDY    -3 -11  68 NW3       30.43R
MIDDLETON      PTCLDY    -5 -14  65 CALM      30.43R
WATERTOWN      CLEAR     -2 -10  68 CALM      30.42R
MONROE         PTCLDY     0  -8  71 NW5       30.41R WCI -10
JANESVILLE     CLEAR     -6  -9  84 CALM      30.43R
$$

WIZ051-052-058>065-066-070>072-051400-
SOUTHEAST WISCONSIN

CITY           SKY/WX    TMP DP  RH WIND       PRES   REMARKS
MILWAUKEE      PTCLDY     4 -10  52 NW8       30.41R WCI  -9
WAUKESHA       CLEAR     -2 -11  65 W6        30.41R WCI -14
MILWAUKEE/TIMM CLEAR      0 -11  60 NW5       30.42R WCI -10
RACINE         PTCLDY     1 -11  57 W8        30.43R WCI -13
BURLINGTON     PTCLDY    -7 -14  70 SW5       30.43R WCI -18
KENOSHA        PTCLDY    -4 -13  65 NW6       30.41R WCI -16
FOND DU LAC    CLEAR     -2 -12  62 NW7       30.41R WCI -15
SHEBOYGAN      CLEAR     -4 -13  65 NW5       30.40S WCI -15
WEST BEND      CLEAR     -2  -8  78 CALM      30.40S
JUNEAU         CLEAR     -4 -11  70 CALM      30.42R
$$

LSZ147-162-051400-
LAKE SUPERIOR

STATION/POSITION TIME  TEMP    WIND        PRES    WAVE
                       AIR SEA DIR/SP/G            HT/PER
                 (UTC) (F)     (DEG/KT/KT) (MB)    (FT/S)
DEVILS ISLAND    1300    4     280/ 10/ 13 1030.8R
PORT WING        1240  -10     200/  7/  9 1030.1R
SAXON HARBOR     1200   -9     200/  8/  9 1029.5
$$

LMZ867-665-643>646-051400-
LAKE MICHIGAN

STATION/POSITION TIME  TEMP    WIND        PRES    WAVE
                       AIR SEA DIR/SP/G            HT/PER
                 (UTC) (F)     (DEG/KT/KT) (MB)    (FT/S)
NORTHPORT PIER   1215   -1     290/  8/ 12 1028.8R
SISTER BAY       1213   -8     280/  6/  6   N/A
KEWAUNEE LAKESHO 1200   -5     300/  6/  7 1028.3R
SHEBOYGAN LAKESH 1300    2     300/  8/ 10 1031.9R
PORT WASHINGTON  1200    1     300/  5/  8 1030.8R
MILWAUKEE LAKESH 1300    5     310/ 10/ 13   N/A
KENOSHA   LAKESH 1300    2     290/ 11/ 13 1029.8R
$$

TC  - TEMPERATURE IN CELSIUS
VSB - VISIBILITY IN STATUTE MILES
WCI - WIND CHILL INDEX
HX  - HEAT INDEX




USA.gov is the U.S. government's official web portal to all federal, state and local government web resources and services.